{"data":{"norad_id":44744,"epoch":"2026-09-20T00:27:00.449280Z","epoch_age_seconds":59697,"freshness":"FRESH","line1":"1 44744U 19074AH  26263.01875520  .00032516  00000+0  93995-3 0  9995","line2":"2 44744  53.0580  32.0452 0001810  55.6480 304.4693 15.35367204378081","mean_motion":15.35367204,"eccentricity":0.000181,"inclination_deg":53.058,"raan_deg":32.0452,"arg_perigee_deg":55.648,"mean_anomaly_deg":304.4693,"bstar":0.00093995,"rev_number":37808,"period_min":93.788638720982,"perigee_km":458.59234328073,"apogee_km":461.06768734027,"semimajor_km":6837.9670153105,"source":"CELESTRAK","updated_at":"2026-09-20T09:00:38.219081Z"}}